N152FJ KEYW-KGYY

Flight info

Callsign N152FJ
Flight time N/A
Altitude 40000
Route
Aircraft FA50/M-SBDE3FGHIM1RWXY/HB1

Departure

Time N/A
Airport Key West International Airport (KEYW)

Arrival

Time 2026-04-18 02:29
Airport Gary/Chicago International Airport (KGYY)
Time Latitude Longitude Altitude Speed Heading
2026-04-18 02:09 40.24217 -86.93913 25836 ft 460 kts 338°
2026-04-18 02:09 40.27278 -86.95177 25832 ft 461 kts 338°
2026-04-18 02:09 40.30342 -86.96426 25830 ft 461 kts 338°
2026-04-18 02:09 40.33424 -86.97515 25829 ft 455 kts 341°
2026-04-18 02:10 40.36485 -86.98421 25815 ft 447 kts 342°
2026-04-18 02:10 40.39481 -86.99379 25828 ft 439 kts 340°
2026-04-18 02:10 40.42405 -87.00434 25818 ft 433 kts 339°
2026-04-18 02:10 40.45303 -87.01454 25834 ft 429 kts 340°
2026-04-18 02:11 40.48193 -87.02396 25832 ft 426 kts 341°
2026-04-18 02:11 40.51054 -87.03337 25822 ft 422 kts 340°
2026-04-18 02:11 40.53900 -87.04317 25523 ft 425 kts 340°
2026-04-18 02:11 40.56764 -87.05308 25090 ft 426 kts 340°
2026-04-18 02:12 40.59628 -87.06270 24625 ft 423 kts 341°
2026-04-18 02:12 40.62479 -87.07224 24161 ft 420 kts 341°
2026-04-18 02:12 40.65297 -87.08185 23706 ft 417 kts 341°
2026-04-18 02:12 40.68100 -87.09146 23233 ft 415 kts 341°
2026-04-18 02:13 40.70854 -87.10199 22682 ft 410 kts 335°
2026-04-18 02:13 40.73398 -87.11719 22171 ft 404 kts 327°
2026-04-18 02:13 40.75850 -87.13580 21652 ft 401 kts 324°
2026-04-18 02:13 40.78206 -87.15457 21171 ft 400 kts 325°
2026-04-18 02:14 40.80671 -87.17175 20672 ft 402 kts 329°
2026-04-18 02:14 40.83193 -87.18771 20181 ft 401 kts 329°
2026-04-18 02:14 40.85671 -87.20449 19678 ft 400 kts 327°
2026-04-18 02:14 40.88114 -87.22212 19215 ft 399 kts 326°
2026-04-18 02:15 40.90573 -87.23938 18748 ft 401 kts 327°
2026-04-18 02:15 40.93057 -87.25619 18274 ft 401 kts 327°
2026-04-18 02:15 40.95543 -87.27320 17777 ft 401 kts 327°
2026-04-18 02:15 40.98005 -87.29044 17248 ft 401 kts 326°
2026-04-18 02:16 41.00479 -87.30773 16736 ft 401 kts 327°
2026-04-18 02:16 41.02952 -87.32479 16229 ft 401 kts 327°
2026-04-18 02:16 41.05422 -87.34186 15758 ft 400 kts 326°
2026-04-18 02:16 41.07883 -87.35903 15261 ft 400 kts 326°
2026-04-18 02:17 41.10342 -87.37618 14796 ft 399 kts 326°
2026-04-18 02:17 41.12802 -87.39329 14326 ft 399 kts 327°
2026-04-18 02:17 41.15264 -87.41043 13845 ft 400 kts 326°
2026-04-18 02:17 41.17726 -87.42761 13361 ft 400 kts 327°
2026-04-18 02:18 41.20192 -87.44484 12841 ft 400 kts 327°
2026-04-18 02:18 41.22656 -87.46205 12332 ft 396 kts 326°
2026-04-18 02:18 41.24998 -87.47831 11832 ft 375 kts 326°
2026-04-18 02:18 41.27258 -87.49407 11340 ft 359 kts 326°
2026-04-18 02:19 41.29426 -87.50935 10851 ft 347 kts 325°
2026-04-18 02:19 41.31527 -87.52413 10368 ft 337 kts 325°
2026-04-18 02:19 41.33579 -87.53851 9912 ft 330 kts 325°
2026-04-18 02:19 41.35585 -87.55259 9422 ft 323 kts 324°
2026-04-18 02:20 41.37558 -87.56646 8904 ft 318 kts 324°
2026-04-18 02:20 41.39504 -87.58015 8400 ft 313 kts 323°
2026-04-18 02:20 41.41418 -87.59362 7896 ft 310 kts 323°
2026-04-18 02:20 41.43322 -87.60705 7409 ft 309 kts 323°
2026-04-18 02:21 41.45215 -87.62037 6928 ft 308 kts 323°
2026-04-18 02:21 41.47102 -87.63368 6450 ft 306 kts 323°
2026-04-18 02:21 41.48985 -87.64695 6007 ft 305 kts 322°
2026-04-18 02:21 41.50852 -87.66013 5510 ft 304 kts 323°
2026-04-18 02:22 41.52719 -87.67333 5021 ft 303 kts 323°
2026-04-18 02:22 41.54579 -87.68648 4539 ft 303 kts 323°
2026-04-18 02:22 41.56437 -87.69961 4046 ft 302 kts 323°
2026-04-18 02:22 41.58267 -87.71251 3843 ft 292 kts 323°
2026-04-18 02:23 41.60114 -87.72276 3839 ft 295 kts 339°
2026-04-18 02:23 41.62168 -87.72521 3802 ft 299 kts 359°
2026-04-18 02:23 41.64197 -87.71930 3801 ft 300 kts 19°
2026-04-18 02:23 41.66068 -87.70648 3801 ft 306 kts 32°
2026-04-18 02:24 41.67838 -87.69011 3802 ft 312 kts 42°
2026-04-18 02:24 41.69220 -87.66916 3802 ft 288 kts 62°
2026-04-18 02:24 41.70044 -87.64656 3801 ft 253 kts 80°
2026-04-18 02:24 41.70397 -87.62521 3784 ft 220 kts 94°
2026-04-18 02:25 41.70407 -87.60545 3519 ft 205 kts 107°
2026-04-18 02:25 41.70153 -87.58747 3265 ft 190 kts 118°
2026-04-18 02:25 41.69701 -87.57170 3062 ft 174 kts 128°
2026-04-18 02:25 41.69118 -87.55834 2855 ft 159 kts 136°
2026-04-18 02:26 41.68550 -87.54714 2947 ft 128 kts 140°
2026-04-18 02:26 41.68023 -87.53745 2882 ft 133 kts 143°
2026-04-18 02:26 41.67429 -87.52728 2715 ft 143 kts 142°
2026-04-18 02:26 41.66889 -87.51626 2558 ft 135 kts 138°
2026-04-18 02:27 41.66402 -87.50607 2363 ft 125 kts 141°
2026-04-18 02:27 41.65892 -87.49672 2160 ft 125 kts 141°
2026-04-18 02:27 41.65401 -87.48712 1960 ft 126 kts 136°
2026-04-18 02:27 41.64928 -87.47739 1745 ft 122 kts 127°
2026-04-18 02:28 41.64447 -87.46815 1592 ft 122 kts 123°
2026-04-18 02:28 41.64004 -87.45856 1361 ft 120 kts 124°
2026-04-18 02:28 41.63539 -87.44933 1109 ft 119 kts 126°
2026-04-18 02:28 41.63075 -87.44020 907 ft 117 kts 124°
2026-04-18 02:29 41.62627 -87.43132 727 ft 113 kts 124°
2026-04-18 02:29 41.62208 -87.42317 596 ft 94 kts 121°
2026-04-18 02:29 41.61926 -87.41757 589 ft 58 kts 124°
2026-04-18 02:29 41.61747 -87.41410 591 ft 37 kts 124°
2026-04-18 02:30 41.61658 -87.41214 593 ft 16 kts 88°
2026-04-18 02:30 41.61730 -87.41116 592 ft 16 kts 56°
2026-04-18 02:30 41.61738 -87.40965 592 ft 18 kts 99°
2026-04-18 02:30 41.61683 -87.40818 592 ft 19 kts 121°
2026-04-18 02:31 41.61660 -87.40723 592 ft 6 kts 38°
2026-04-18 02:31 41.61665 -87.40718 592 ft 0 kts 32°